Location: Colossi of Memnon
(25.7167°N, 32.6167°E)
Time: 05:07:39
(UTC+00:00)

Sakura Rocket - Pass Details

Date: 05 March 2021
Orbit: 476 x 1742 km, 28.7° (Epoch: 19 April)

Event Time Altitude Azimuth Distance (km) Brightness Sun altitude
Exits shadow 02:31:28 56° 9° (N) 604 3.0 -22.8°
Drops below altitude 10° 02:34:52 10° 74° (ENE) 1,642 6.3 -22.0°
Sets 02:36:58 0° 79° (E) 2,508 7.7 -21.5°
